RH
43 44 45 47 50 54 57 46 34 33 33 34 40 44 43 40 37 34 34 37 42 44 44 42 38 36 33 30 29 29 29 29 29 31 32 32 32 31 30 32 35 38 39 38 39 41 43 46 48 47 48 50 50 50 50 51 53 55 55 54 52 50 46 45 44 41 39 39 37 38 38 35 34 33 29 27 28 28 27 26 25 25 24 24 22
44 44 45 47 50 55 58 49 39 39 37 37 44 50 50 47 43 39 36 38 44 46 45 41 38 36 33 32 30 29 29 30 31 32 33 34 34 34 34 35 36 37 37 35 36 38 40 42 45 45 45 47 47 47 47 48 50 51 50 50 49 50 52 53 52 49 48 47 45 47 46 41 37 34 32 31 30 29 27 27 27 27 25 25 24
45 44 43 47 52 54 54 49 44 43 41 43 53 59 57 55 50 43 39 40 45 47 43 38 37 37 34 32 30 29 29 29 31 33 34 35 35 34 35 35 36 36 35 36 37 37 36 37 39 41 43 44 45 46 46 48 50 49 49 49 50 52 55 56 54 52 51 49 48 51 51 48 43 40 39 38 35 32 31 31 31 31 30 28 27
47 48 46 50 55 56 53 48 45 46 45 48 57 61 61 59 52 44 42 44 46 46 42 38 38 38 34 32 30 28 28 29 31 34 34 34 34 34 34 35 36 37 37 38 38 37 35 34 34 37 39 41 42 44 46 48 49 49 49 50 50 54 59 60 57 53 48 45 45 46 50 50 48 45 45 42 37 35 35 34 32 32 32 32 32
46 49 50 51 53 55 54 48 45 47 48 49 54 58 61 60 51 45 46 46 46 44 41 39 38 37 34 31 29 28 29 32 33 33 33 33 33 32 34 37 38 38 36 36 36 36 36 35 35 37 39 40 41 43 45 47 48 49 50 50 52 58 62 62 59 53 48 47 48 49 52 52 48 46 46 43 38 37 38 37 36 35 33 33 34
46 47 50 50 48 51 53 48 43 44 48 52 54 57 60 59 52 47 48 47 44 42 41 39 39 37 34 30 28 28 30 33 34 34 34 33 32 32 35 37 38 37 36 36 36 37 37 38 40 41 43 44 45 46 47 48 49 50 51 51 55 59 59 57 57 57 57 58 59 59 58 56 51 48 46 45 42 39 39 38 39 40 38 36 35
47 49 50 48 46 48 51 48 42 43 49 54 55 55 58 59 53 48 48 46 44 42 40 40 39 37 33 29 28 29 32 35 37 38 37 33 32 34 36 38 38 38 40 40 40 41 42 43 45 46 47 49 49 50 51 51 51 51 52 54 57 57 55 56 60 64 66 66 65 63 61 58 55 51 48 47 45 42 42 41 39 41 43 41 39
44 47 49 52 52 51 51 47 43 44 49 52 53 52 54 56 52 49 49 46 41 40 40 40 39 36 31 28 29 32 35 39 41 42 40 36 34 36 37 39 40 42 44 46 47 48 49 49 50 50 51 52 52 52 51 51 52 52 52 54 55 54 54 56 60 63 66 65 64 64 63 60 55 52 50 47 46 44 45 46 43 43 45 44 43
40 42 45 49 52 52 54 52 46 45 49 50 51 51 51 52 51 49 48 44 40 40 40 39 39 34 30 30 33 37 40 41 42 44 43 41 40 40 39 39 41 43 45 48 51 52 52 52 52 53 54 55 55 53 51 50 50 51 51 53 53 53 55 56 58 63 65 64 65 66 64 59 55 52 49 48 48 47 47 49 49 48 50 48 46
40 40 41 45 49 52 58 59 51 46 49 51 51 53 53 52 50 48 47 43 42 43 42 40 38 33 30 32 37 41 43 43 45 49 51 49 45 42 40 38 39 41 43 47 50 52 53 54 52 52 54 56 56 55 53 51 50 49 50 52 53 56 57 57 59 63 65 66 66 65 62 58 56 54 51 50 52 52 52 56 56 53 55 53 48
43 41 41 45 51 53 58 60 53 50 53 54 53 54 55 53 47 44 44 44 44 45 43 40 37 33 32 36 41 45 46 46 50 54 54 52 47 43 41 38 37 39 42 45 48 50 52 53 51 49 50 53 56 55 54 53 52 51 51 53 57 59 60 58 59 61 64 65 63 62 61 60 59 59 56 54 56 57 57 61 64 62 60 58 53
48 47 47 49 54 59 63 65 62 62 63 60 58 59 60 56 48 43 45 46 45 45 42 40 37 36 38 42 45 49 50 51 55 57 54 50 46 44 43 40 37 38 42 44 46 48 49 51 50 48 47 49 53 56 56 55 54 54 53 56 60 62 61 60 61 62 62 62 61 62 64 63 63 63 62 60 59 61 62 64 69 69 66 63 60
52 51 52 54 60 69 73 73 72 73 74 70 65 64 61 55 49 47 49 47 45 43 42 41 41 42 45 47 49 53 54 55 58 59 58 52 46 43 44 41 37 37 39 42 45 46 48 48 47 45 44 45 48 53 56 55 53 54 56 59 64 65 63 63 65 63 61 60 61 62 65 66 67 66 65 65 66 67 68 69 72 74 71 68 65
53 52 53 55 59 66 69 71 70 71 73 73 70 66 61 55 52 52 52 49 45 44 44 46 47 48 49 52 54 56 57 58 59 61 61 56 47 44 43 40 37 35 36 39 42 44 45 45 44 42 42 42 44 48 52 52 52 55 60 64 68 68 66 66 65 61 58 59 61 62 65 68 68 66 66 71 74 74 73 74 76 79 77 73 68
51 52 53 54 55 56 59 67 72 72 73 75 74 70 65 61 59 58 57 53 49 48 50 53 53 52 54 56 58 59 61 63 63 65 65 59 50 47 44 39 36 36 36 37 39 42 42 40 39 41 41 43 45 48 51 52 54 58 65 69 67 65 65 65 64 59 57 60 63 64 66 68 69 71 73 76 79 79 79 78 79 81 81 76 72
50 52 54 56 57 60 66 74 77 78 77 77 76 75 72 67 63 61 59 57 54 53 55 57 56 56 57 59 62 66 69 70 69 68 68 59 50 47 43 38 36 37 36 35 36 38 37 34 37 42 44 47 49 52 54 55 57 63 69 68 63 60 61 62 62 58 58 63 66 65 66 69 74 77 79 81 83 83 82 80 81 84 84 80 75
46 49 50 53 60 69 78 82 82 83 81 76 75 78 75 69 66 64 63 62 59 57 58 59 59 59 61 65 72 77 78 75 70 66 63 54 45 42 40 38 38 37 35 35 36 36 35 34 39 45 48 50 53 55 56 56 60 67 70 65 58 55 57 58 57 56 59 63 65 63 66 72 77 80 82 86 86 86 84 82 82 85 87 83 77
47 49 51 57 67 77 83 83 83 85 82 76 77 78 73 69 70 71 70 67 62 59 61 61 60 59 61 67 75 79 79 75 67 59 55 48 42 40 40 40 39 37 36 37 37 36 38 40 43 47 50 53 55 56 57 59 63 67 65 59 55 53 54 54 53 54 58 61 61 63 68 76 82 84 85 88 88 87 86 85 85 86 88 86 81
47 48 53 60 68 78 84 82 84 87 81 75 77 76 70 72 77 79 76 71 64 63 64 63 60 61 65 72 77 78 76 71 61 52 48 44 40 40 40 39 38 38 38 38 38 40 42 44 45 48 50 53 55 58 61 63 64 63 60 56 54 53 53 53 54 55 57 58 61 66 72 78 83 85 87 89 88 87 88 88 89 90 89 88 84
43 45 49 52 61 78 84 81 84 86 79 73 74 72 72 78 83 83 80 74 69 68 68 67 68 72 77 80 80 75 68 60 51 46 44 42 39 39 39 38 38 39 38 39 41 43 45 45 46 48 50 52 55 60 64 64 62 59 58 56 56 55 54 54 57 58 56 57 62 68 73 76 80 84 87 88 87 87 89 90 91 94 93 90 87
44 45 48 55 68 80 82 78 80 80 73 69 71 73 76 80 81 80 78 74 71 70 69 70 73 78 80 80 75 67 58 51 46 44 42 40 39 38 37 37 38 39 39 41 43 45 46 46 48 50 51 53 57 60 62 62 60 60 59 59 59 59 57 57 58 58 55 57 64 70 71 73 78 83 87 88 86 87 88 89 92 97 97 94 90
51 54 60 70 77 76 74 74 76 73 68 67 70 73 78 79 77 75 75 76 76 76 74 72 74 77 78 74 67 59 51 45 43 41 40 39 38 35 35 37 39 39 40 43 45 44 45 47 49 51 53 53 54 56 58 60 61 61 61 61 60 58 56 57 57 55 53 56 63 67 69 71 76 82 87 88 88 87 87 89 93 97 99 96 91
57 64 72 80 81 79 77 75 72 68 66 66 70 76 79 80 80 80 82 83 83 82 78 75 74 74 69 62 56 49 43 41 40 39 38 37 33 32 35 38 40 41 42 44 45 45 46 48 51 51 50 48 48 52 58 61 63 63 61 59 57 54 54 55 54 52 51 53 57 62 66 69 74 82 88 89 88 86 87 90 93 96 97 96 91
55 64 74 79 82 85 86 82 78 76 73 72 78 84 83 82 84 83 80 76 74 73 74 74 72 67 57 49 45 41 38 38 38 37 36 34 32 33 37 40 42 43 44 45 45 45 47 50 50 47 45 45 47 55 61 63 63 62 60 57 56 55 55 54 51 47 46 48 50 56 64 68 73 82 89 90 87 85 86 91 94 95 96 94 90
55 61 68 73 79 84 87 86 86 86 81 78 82 85 82 81 82 79 73 68 66 67 68 68 64 56 47 42 40 38 37 36 36 36 36 35 34 36 39 42 44 45 46 46 46 47 49 51 48 45 44 45 49 57 63 64 62 60 58 57 57 57 55 52 47 42 42 44 45 51 59 66 71 79 87 90 88 84 85 90 93 94 94 92 89
54 58 62 68 77 83 85 84 83 82 79 77 78 79 79 78 78 77 75 71 67 65 65 61 53 45 40 40 40 38 37 36 37 39 39 37 35 36 39 43 45 47 47 47 47 49 51 50 47 45 47 49 53 60 64 63 60 58 58 58 57 55 52 48 43 40 41 42 43 46 52 59 65 72 80 87 88 86 86 89 92 94 95 92 88
52 56 59 62 67 73 77 78 75 75 77 78 77 77 79 79 78 78 75 69 65 63 59 52 44 39 39 40 41 40 38 37 39 41 40 38 38 39 41 44 46 47 48 49 50 51 52 50 48 50 53 55 56 60 65 63 60 58 58 57 55 52 48 43 40 39 40 41 42 43 45 49 56 62 71 80 87 88 88 89 92 95 94 91 88
52 55 57 59 61 65 70 74 77 79 82 84 81 78 77 78 77 74 67 62 60 58 52 45 41 42 44 45 43 41 40 40 41 40 38 38 41 44 45 47 46 47 48 51 53 52 50 49 51 55 58 58 57 60 63 63 60 58 56 54 51 48 44 40 39 38 39 39 40 40 40 42 47 53 61 72 82 88 88 89 91 93 92 90 90
54 60 64 65 64 63 63 71 81 84 82 82 80 76 73 72 71 67 61 57 54 51 47 45 46 48 48 47 44 42 42 42 41 39 38 40 44 47 49 49 48 48 50 54 54 51 48 49 54 59 60 60 60 62 65 66 63 58 53 50 49 46 42 39 37 37 37 37 37 37 37 39 42 46 52 62 76 85 88 88 89 90 92 93 93
56 60 63 63 61 60 61 68 77 79 77 75 74 69 65 64 63 60 55 53 52 50 49 48 48 47 47 47 45 43 43 41 40 39 40 42 45 49 50 51 49 50 53 55 53 50 50 53 58 61 62 64 66 68 70 70 65 59 53 50 48 45 40 36 34 33 33 33 33 34 35 36 38 40 44 52 66 79 86 87 87 88 90 92 92
53 54 56 58 59 58 57 58 61 64 64 63 58 52 50 51 53 52 52 54 55 53 51 50 47 46 46 46 45 44 43 42 41 42 43 44 47 51 52 52 51 52 55 55 53 52 55 58 61 62 66 69 71 71 73 73 67 59 55 52 47 43 38 33 30 29 29 30 30 31 32 32 33 36 39 45 58 72 81 86 88 88 88 90 91
50 49 50 53 54 53 51 51 50 50 50 48 43 41 42 47 52 55 58 59 59 56 53 51 49 48 46 44 44 46 47 46 46 46 45 44 48 52 54 53 53 54 55 55 55 57 60 61 62 64 67 70 72 71 71 72 67 60 55 51 46 40 35 31 28 26 25 27 28 28 28 29 29 32 34 40 51 67 77 83 87 90 90 89 90
52 48 46 46 46 46 47 47 46 45 44 43 41 43 49 56 62 64 64 65 63 60 56 52 51 50 47 44 45 48 50 51 50 49 46 45 47 51 53 52 53 54 56 57 59 62 63 63 64 66 67 68 69 68 66 66 63 58 53 48 43 38 34 31 28 25 23 24 25 25 25 26 26 28 31 35 45 61 73 80 84 88 90 88 87
50 46 43 41 41 41 42 43 44 45 46 47 49 54 60 65 68 69 69 67 64 60 56 55 55 54 51 47 47 49 52 54 53 51 47 46 47 49 50 51 53 56 59 62 65 67 66 65 65 66 66 65 64 62 59 57 55 52 48 44 40 37 36 34 30 25 22 22 22 22 23 24 23 25 28 32 40 54 68 76 81 85 87 87 86
44 43 42 41 41 41 42 45 47 48 50 53 56 59 61 62 64 65 65 61 59 59 59 61 62 59 53 50 50 52 56 57 56 52 49 48 50 52 53 54 56 59 62 66 69 69 68 67 66 66 64 62 60 58 56 53 49 45 42 41 40 39 39 37 32 26 23 21 21 21 22 22 22 24 27 30 36 48 61 71 78 82 85 86 86
40 42 43 42 43 43 45 48 50 50 51 52 54 55 57 58 59 59 60 61 63 65 66 66 65 60 55 53 54 55 58 60 59 56 55 55 57 58 59 59 60 63 66 69 70 69 67 67 67 65 62 59 57 57 55 51 46 41 38 39 40 41 39 35 31 26 23 21 20 20 20 20 21 23 26 29 33 43 56 67 73 79 83 86 87
41 44 44 44 46 48 48 48 49 51 53 55 55 55 56 58 60 64 68 70 70 66 62 63 63 60 56 56 57 56 58 62 63 62 62 63 63 63 62 62 62 64 66 67 68 68 68 67 66 64 61 59 58 57 53 48 43 39 38 37 38 36 35 32 29 26 23 21 20 19 18 19 21 24 25 26 29 37 51 62 68 73 80 85 87
46 45 44 45 49 51 50 50 52 56 61 62 59 56 58 64 68 72 74 73 67 61 59 61 62 61 60 59 58 58 61 66 67 66 65 66 65 63 63 62 62 62 62 63 64 67 68 68 65 62 60 57 55 52 49 45 42 39 37 34 32 31 30 29 27 24 22 20 19 18 17 18 21 22 23 25 28 33 44 57 65 69 73 79 84
48 45 43 44 48 50 52 54 58 60 60 58 55 56 61 68 70 68 65 61 57 55 58 63 64 63 62 61 59 61 66 70 70 68 68 68 67 65 64 64 65 64 63 62 64 66 67 67 64 61 56 51 47 46 44 42 40 37 32 29 27 26 25 25 23 22 20 19 17 16 16 17 19 20 20 23 28 31 38 50 61 66 68 72 78
50 46 43 44 48 52 54 55 56 56 54 54 54 57 60 63 63 60 58 58 56 56 59 64 67 66 66 64 65 69 74 74 71 70 70 71 69 66 65 67 67 66 65 64 64 65 66 65 61 55 49 44 42 41 40 36 32 29 26 25 24 24 23 23 21 20 19 18 16 16 15 15 16 16 16 20 25 29 34 42 54 62 65 67 70
54 48 44 45 49 54 59 60 58 55 54 54 55 55 55 55 58 62 65 67 66 64 65 68 70 70 69 70 72 75 76 74 72 73 73 71 69 66 67 67 67 65 63 62 62 63 63 59 53 46 41 38 37 36 32 26 22 21 21 21 22 23 23 23 22 21 20 18 17 15 15 14 14 15 15 16 20 25 29 35 45 55 62 64 65
57 50 47 47 51 56 60 60 57 53 52 52 52 52 53 55 61 69 74 74 73 73 73 74 72 70 70 72 74 75 74 73 75 75 74 70 67 65 65 65 62 59 56 54 55 56 54 50 43 38 35 33 31 27 22 18 17 17 17 18 19 20 21 22 22 21 20 19 18 17 16 15 14 14 15 15 17 20 24 28 34 44 54 59 61
59 55 52 52 53 56 55 52 50 49 49 50 53 59 66 70 72 73 74 74 74 76 78 76 72 71 72 74 75 76 77 77 78 75 70 66 64 64 64 64 62 58 52 48 47 47 44 41 37 34 31 28 24 20 16 15 15 16 15 15 16 16 16 17 18 18 18 18 18 18 16 15 14 14 14 15 16 17 20 23 26 33 41 49 54
58 57 55 54 54 54 51 49 49 49 49 53 60 69 78 81 77 73 74 75 76 77 77 76 75 77 79 80 81 81 80 78 75 71 67 63 61 63 64 64 62 57 50 45 42 41 38 37 36 32 27 22 19 16 14 14 15 15 15 15 14 14 14 14 14 15 15 15 16 16 16 15 15 14 13 14 15 15 16 19 22 26 31 38 44
60 58 56 53 52 52 50 50 51 53 54 59 65 70 72 73 72 72 74 76 77 78 79 79 79 81 82 82 84 83 80 76 73 70 65 61 60 61 64 64 61 54 47 41 39 37 35 35 33 28 21 17 16 15 15 14 14 14 14 14 14 14 14 14 14 14 14 15 15 15 15 15 15 14 13 13 14 15 16 17 20 23 26 30 35
58 56 53 50 49 50 51 53 55 56 57 58 60 61 63 65 69 72 74 75 77 79 80 80 80 79 80 81 82 80 77 74 71 67 62 59 58 60 63 63 57 50 43 38 35 33 33 33 29 24 19 17 16 16 15 15 14 14 15 15 15 14 14 14 15 15 15 15 15 15 15 15 14 14 13 13 13 14 15 16 18 20 24 26 28
53 51 49 49 51 53 54 55 55 54 53 51 52 54 57 61 65 68 70 72 73 74 75 75 74 74 75 76 76 74 72 70 65 61 57 54 54 57 60 60 54 46 40 35 32 32 33 33 29 22 18 17 17 16 15 15 15 15 15 15 15 15 15 15 16 16 16 16 16 16 16 15 15 14 14 14 13 13 14 16 17 19 21 23 25
50 50 51 52 53 53 52 52 51 50 49 48 48 50 52 54 57 59 61 62 62 63 63 64 65 66 68 70 69 67 65 63 58 54 52 50 50 52 56 55 49 42 36 32 31 33 34 33 30 24 19 17 16 15 16 17 17 17 16 16 16 17 17 16 17 17 16 17 17 16 16 16 16 15 15 14 13 13 13 15 17 18 19 19 21
51 52 53 52 50 47 46 45 45 44 44 45 46 47 48 49 50 52 54 55 56 56 56 57 59 61 64 65 64 62 60 57 53 50 49 49 49 49 51 49 43 38 34 33 34 34 33 30 27 23 19 18 17 17 18 18 18 18 18 17 17 17 17 17 17 17 17 17 17 17 17 16 16 15 15 15 14 14 14 15 16 17 18 18 18
50 49 47 45 42 40 39 38 38 39 40 41 43 43 44 45 46 47 49 51 53 54 55 55 55 57 58 59 59 57 55 53 50 49 48 47 47 47 46 44 39 36 35 35 34 33 30 27 23 21 20 19 19 19 18 18 19 18 18 18 18 17 16 16 16 16 17 16 16 17 17 16 15 15 15 15 15 15 15 15 15 17 17 18 18
40 37 36 35 34 34 34 34 35 35 35 36 36 36 37 39 40 42 44 45 48 51 53 54 54 55 56 57 56 55 53 51 49 47 45 44 44 45 44 41 37 35 34 34 33 30 28 25 21 19 20 20 20 20 20 20 20 19 20 20 19 18 17 16 16 16 16 16 15 16 16 15 15 15 15 15 15 14 15 15 16 16 17 18 19